Retour au catalogue

SL-8 R/B

ActifPO
NORAD 23093·ROCKET BODY·🇷🇺 Russia

Lancé Apr 26, 1994 depuis Plesetsk Cosmodrome

Loading…

Prochains Passages (prochaines 24 heures)

TLE

FraisSource: Space-Track

Époque: Sep 14, 2026, 14:11 UTC

1 23093U 94024B   26257.59162839  .00000114  00000-0  98251-4 0  9996
2 23093  82.9439 122.1173 0008756 257.3628 102.6551 13.78266315 96186

Suivez SL-8 R/B en temps réel avec AllMySat

Download on the App Store